EW9605 Weather Reports


Display with metric or nautical units.
time (UTC)temp
F
wind
direction
speed
MPH
gust
MPH
rain 1hr
in
rain 24hr
in
rain mn
in
humidity
%
barometer
mb
20260508031125 76 0.0 0.0 0.00 0.00 0.00 86 1013.5
20260508030624 76 0.0 0.0 0.00 0.00 0.00 86 1013.4
20260508030123 76 0.0 0.0 0.00 0.00 0.00 85 1013.4
20260508025621 76 0.0 0.0 0.00 0.00 0.00 85 1013.2
20260508025120 76 0.0 0.0 0.00 0.00 0.00 85 1013.4
20260508024619 76 0.0 0.0 0.00 0.00 0.00 85 1013.3
20260508024158 76 0.0 0.0 0.00 0.00 0.00 84 1013.4
20260508023616 76 0.0 0.0 0.00 0.00 0.00 84 1013.5
20260508023135 77 0.0 0.0 0.00 0.00 0.00 83 1013.3
20260508022654 77 0.0 0.0 0.00 0.00 0.00 83 1013.2
20260508022132 77 0.0 0.0 0.00 0.00 0.00 82 1013.1
20260508021631 77 274 0.0 1.0 0.00 0.00 0.00 81 1013.3
20260508021130 77 0.0 0.0 0.00 0.00 0.00 81 1013.3
20260508020628 77 0.0 0.0 0.00 0.00 0.00 81 1013.3
20260508020127 77 0.0 0.0 0.00 0.00 0.00 81 1013.2
20260508015625 78 0.0 0.0 0.00 0.00 0.00 79 1013.3
20260508015144 78 0.0 0.0 0.00 0.00 0.00 80 1013.2
20260508014622 78 0.0 0.0 0.00 0.00 0.00 79 1013.1
20260508014121 78 0.0 0.0 0.00 0.00 0.00 79 1013.2
20260508013620 78 0.0 0.0 0.00 0.00 0.00 78 1013.1
20260508013118 78 0.0 0.0 0.00 0.00 0.00 77 1013.1
20260508012637 78 0.0 0.0 0.00 0.00 0.00 76 1013.1
20260508012115 78 0.0 0.0 0.00 0.00 0.00 75 1013.0
20260508011634 78 0.0 0.0 0.00 0.00 0.00 75 1012.9
20260508011133 79 232 0.0 2.0 0.00 0.00 0.00 74 1013.0
20260508010651 79 282 1.0 3.0 0.00 0.00 0.00 73 1013.1
20260508010130 79 0.0 0.0 0.00 0.00 0.00 72 1012.8
20260508005629 79 0.0 0.0 0.00 0.00 0.00 72 1013.0
20260508005128 79 0.0 0.0 0.00 0.00 0.00 71 1013.0
20260508004626 79 0.0 0.0 0.00 0.00 0.00 71 1013.1
20260508004125 80 0.0 0.0 0.00 0.00 0.00 70 1013.1
20260508003624 80 0.0 0.0 0.00 0.00 0.00 70 1013.0
20260508003123 80 257 1.0 3.0 0.00 0.00 0.00 69 1013.0
20260508002621 80 254 1.0 2.0 0.00 0.00 0.00 69 1013.0
20260508002120 81 0.0 0.0 0.00 0.00 0.00 67 1012.8
20260508001619 81 245 2.0 6.0 0.00 0.00 0.00 66 1012.7
20260508001117 81 217 0.0 3.0 0.00 0.00 0.00 65 1012.8
20260508000616 82 243 2.0 6.0 0.00 0.00 0.00 64 1012.9
20260508000155 82 249 2.0 4.0 0.00 0.00 0.00 62 1012.8
20260507235633 83 262 2.0 3.0 0.00 0.00 0.00 60 1012.7
20260507235132 83 251 2.0 3.0 0.00 0.00 0.00 59 1012.8
20260507234631 83 254 4.0 6.0 0.00 0.00 0.00 58 1012.9
20260507234129 84 286 1.0 4.0 0.00 0.00 0.00 57 1012.9
20260507233628 85 241 1.0 3.0 0.00 0.00 0.00 55 1012.7
20260507233207 85 221 1.0 3.0 0.00 0.00 0.00 54 1012.9
20260507232625 86 261 2.0 6.0 0.00 0.00 0.00 53 1012.8
20260507232124 88 253 4.0 8.0 0.00 0.00 0.00 51 1012.7
20260507231623 89 251 4.0 6.0 0.00 0.00 0.00 51 1012.8
20260507231121 89 0.0 0.0 0.00 0.00 0.00 52 1012.6
20260507230620 89 273 3.0 4.0 0.00 0.00 0.00 52 1012.6
20260507230118 89 0.0 0.0 0.00 0.00 0.00 50 1012.6
20260507225617 89 260 5.0 8.0 0.00 0.00 0.00 49 1012.7
20260507225115 90 235 4.0 8.0 0.00 0.00 0.00 48 1012.5
20260507224634 90 249 4.0 6.0 0.00 0.00 0.00 47 1012.6
20260507224133 90 239 3.0 6.0 0.00 0.00 0.00 46 1012.6
20260507223632 90 294 1.0 3.0 0.00 0.00 0.00 47 1012.5
20260507223130 90 279 2.0 4.0 0.00 0.00 0.00 46 1012.5
20260507222629 90 310 4.0 6.0 0.00 0.00 0.00 45 1012.7
20260507222148 90 248 3.0 6.0 0.00 0.00 0.00 47 1012.6
20260507221626 89 262 3.0 7.0 0.00 0.00 0.00 46 1012.4
20260507221125 90 258 4.0 6.0 0.00 0.00 0.00 46 1012.4
20260507220624 89 255 1.0 4.0 0.00 0.00 0.00 47 1012.5
20260507220122 89 252 3.0 4.0 0.00 0.00 0.00 48 1012.5
20260507215622 89 270 6.0 8.0 0.00 0.00 0.00 47 1012.5
20260507215120 89 258 3.0 6.0 0.00 0.00 0.00 47 1012.4
20260507214619 89 254 4.0 7.0 0.00 0.00 0.00 46 1012.5
20260507214117 89 289 4.0 9.0 0.00 0.00 0.00 44 1012.5
20260507213616 90 327 2.0 7.0 0.00 0.00 0.00 43 1012.5
20260507213135 89 271 4.0 7.0 0.00 0.00 0.00 46 1012.5
20260507212634 89 250 4.0 8.0 0.00 0.00 0.00 44 1012.6
20260507212132 89 307 4.0 9.0 0.00 0.00 0.00 43 1012.8
20260507211631 89 328 3.0 7.0 0.00 0.00 0.00 43 1012.6
20260507211130 89 286 5.0 7.0 0.00 0.00 0.00 42 1012.8
20260507210628 89 258 4.0 7.0 0.00 0.00 0.00 42 1012.7
20260507210127 89 273 3.0 8.0 0.00 0.00 0.00 42 1012.9
20260507205626 89 340 5.0 8.0 0.00 0.00 0.00 44 1012.9
20260507205124 89 267 2.0 7.0 0.00 0.00 0.00 44 1012.9
20260507204623 88 241 5.0 9.0 0.00 0.00 0.00 45 1012.9
20260507204122 89 267 2.0 4.0 0.00 0.00 0.00 44 1012.9
20260507203621 89 268 4.0 7.0 0.00 0.00 0.00 45 1013.0
20260507203119 89 261 2.0 7.0 0.00 0.00 0.00 45 1012.8
20260507202618 89 288 5.0 8.0 0.00 0.00 0.00 42 1012.8
20260507202117 89 256 3.0 6.0 0.00 0.00 0.00 45 1012.9
20260507201615 89 257 5.0 8.0 0.00 0.00 0.00 41 1012.9
20260507201134 89 328 3.0 6.0 0.00 0.00 0.00 39 1012.9
20260507200632 89 256 5.0 9.0 0.00 0.00 0.00 45 1012.8
20260507200131 89 270 5.0 9.0 0.00 0.00 0.00 48 1012.9
20260507195630 88 224 5.0 10.0 0.00 0.00 0.00 48 1012.9
20260507195128 88 240 3.0 8.0 0.00 0.00 0.00 47 1012.9
20260507194627 88 243 4.0 6.0 0.00 0.00 0.00 44 1013.0
20260507194125 88 245 4.0 6.0 0.00 0.00 0.00 43 1013.1
20260507193624 88 265 5.0 8.0 0.00 0.00 0.00 45 1013.2
20260507193123 88 243 4.0 9.0 0.00 0.00 0.00 47 1013.2
20260507192622 88 252 4.0 13.0 0.00 0.00 0.00 51 1013.1
20260507192120 88 227 3.0 11.0 0.00 0.00 0.00 55 1013.2
20260507191619 88 234 4.0 6.0 0.00 0.00 0.00 50 1013.2
20260507191138 88 240 6.0 9.0 0.00 0.00 0.00 49 1013.1
20260507190616 88 272 3.0 6.0 0.00 0.00 0.00 51 1013.4
20260507190135 89 242 5.0 8.0 0.00 0.00 0.00 50 1013.5
20260507185634 88 217 1.0 3.0 0.00 0.00 0.00 52 1013.7
20260507185132 88 212 6.0 13.0 0.00 0.00 0.00 50 1013.6
20260507184631 88 238 4.0 7.0 0.00 0.00 0.00 49 1013.8
20260507184150 88 226 3.0 6.0 0.00 0.00 0.00 49 1013.9
20260507183649 88 235 6.0 10.0 0.00 0.00 0.00 49 1014.1
20260507183127 89 227 5.0 9.0 0.00 0.00 0.00 50 1014.0
20260507182626 89 181 3.0 6.0 0.00 0.00 0.00 55 1014.0
20260507182125 88 240 6.0 11.0 0.00 0.00 0.00 52 1014.0
20260507181623 88 206 7.0 11.0 0.00 0.00 0.00 52 1014.2
20260507181142 88 256 4.0 8.0 0.00 0.00 0.00 52 1014.4
20260507180621 88 236 6.0 11.0 0.00 0.00 0.00 51 1014.3
20260507180119 88 233 5.0 8.0 0.00 0.00 0.00 52 1014.4
20260507175618 88 255 5.0 8.0 0.00 0.00 0.00 52 1014.5
20260507175117 87 238 6.0 8.0 0.00 0.00 0.00 50 1014.5
20260507174615 87 237 6.0 10.0 0.00 0.00 0.00 53 1014.5
20260507174134 88 236 4.0 7.0 0.00 0.00 0.00 52 1014.5
20260507173633 88 242 8.0 10.0 0.00 0.00 0.00 55 1014.7
20260507173132 88 253 3.0 4.0 0.00 0.00 0.00 55 1014.7
20260507172630 87 244 5.0 10.0 0.00 0.00 0.00 56 1014.7
20260507172128 87 289 5.0 10.0 0.00 0.00 0.00 56 1014.7
20260507171627 87 217 4.0 6.0 0.00 0.00 0.00 57 1014.7
20260507171126 87 238 6.0 8.0 0.00 0.00 0.00 57 1014.7
20260507170625 87 232 5.0 10.0 0.00 0.00 0.00 60 1014.6
20260507170123 87 274 1.0 7.0 0.00 0.00 0.00 61 1014.8
20260507165642 87 212 4.0 8.0 0.00 0.00 0.00 60 1014.8
20260507165121 87 208 5.0 9.0 0.00 0.00 0.00 60 1014.7
20260507164640 86 249 0.0 2.0 0.00 0.00 0.00 59 1014.8
20260507164118 86 239 5.0 7.0 0.00 0.00 0.00 61 1015.1
20260507163637 86 211 1.0 3.0 0.00 0.00 0.00 62 1014.9
20260507163135 86 215 5.0 9.0 0.00 0.00 0.00 60 1015.0
20260507162634 85 201 4.0 7.0 0.00 0.00 0.00 62 1014.8
20260507162133 85 246 1.0 4.0 0.00 0.00 0.00 60 1014.9
20260507161632 85 196 3.0 8.0 0.00 0.00 0.00 63 1015.0
20260507161130 85 253 6.0 9.0 0.00 0.00 0.00 62 1015.2
20260507160629 85 191 4.0 7.0 0.00 0.00 0.00 65 1015.0
20260507160127 85 221 6.0 9.0 0.00 0.00 0.00 64 1015.2
20260507155626 85 239 3.0 4.0 0.00 0.00 0.00 65 1015.3
20260507155125 85 170 0.0 2.0 0.00 0.00 0.00 66 1015.2
20260507154623 85 233 6.0 8.0 0.00 0.00 0.00 66 1015.3
20260507154122 84 215 1.0 2.0 0.00 0.00 0.00 68 1015.3
20260507153621 84 217 4.0 6.0 0.00 0.00 0.00 66 1015.3
20260507153119 84 227 7.0 13.0 0.00 0.00 0.00 67 1015.3
20260507152618 84 239 5.0 9.0 0.00 0.00 0.00 65 1015.4
20260507152117 83 237 6.0 9.0 0.00 0.00 0.00 67 1015.2
20260507151615 83 215 4.0 7.0 0.00 0.00 0.00 68 1015.2
20260507151134 83 230 7.0 10.0 0.00 0.00 0.00 68 1015.1
20260507150653 83 233 3.0 9.0 0.00 0.00 0.00 68 1015.1
20260507150132 83 0.0 0.0 0.00 0.00 0.00 70 1015.2
20260507145630 83 197 3.0 7.0 0.00 0.00 0.00 71 1015.1
20260507145129 83 227 4.0 8.0 0.00 0.00 0.00 71 1014.9
20260507144628 83 228 2.0 7.0 0.00 0.00 0.00 71 1015.1
20260507144126 83 202 3.0 6.0 0.00 0.00 0.00 72 1015.2
20260507143625 82 0.0 0.0 0.00 0.00 0.00 74 1015.0
20260507143123 82 218 2.0 3.0 0.00 0.00 0.00 73 1015.0
20260507142622 82 246 7.0 11.0 0.00 0.00 0.00 73 1015.0
20260507142121 82 192 4.0 10.0 0.00 0.00 0.00 75 1015.0
20260507141620 81 230 0.0 2.0 0.00 0.00 0.00 76 1015.0
20260507141119 81 215 2.0 4.0 0.00 0.00 0.00 77 1015.0
20260507140638 81 239 3.0 4.0 0.00 0.00 0.00 78 1015.2
20260507140116 81 222 2.0 3.0 0.00 0.00 0.00 80 1015.0
20260507135635 80 211 1.0 2.0 0.00 0.00 0.00 80 1015.0
20260507135134 80 0.0 0.0 0.00 0.00 0.00 80 1015.0
20260507134633 80 218 1.0 3.0 0.00 0.00 0.00 80 1015.0
20260507134131 79 156 0.0 3.0 0.00 0.00 0.00 79 1014.9
20260507133630 80 235 8.0 11.0 0.00 0.00 0.00 79 1014.8
20260507133149 80 0.0 0.0 0.00 0.00 0.00 82 1014.9
20260507132647 79 0.0 0.0 0.00 0.00 0.00 83 1014.9
20260507132126 79 0.0 0.0 0.00 0.00 0.00 83 1014.8
20260507131625 79 0.0 0.0 0.00 0.00 0.00 84 1014.9
20260507131124 78 0.0 0.0 0.00 0.00 0.00 85 1014.7
20260507130622 78 0.0 0.0 0.00 0.00 0.00 86 1014.7
20260507130121 78 0.0 0.0 0.00 0.00 0.00 86 1014.5
20260507125619 77 0.0 0.0 0.00 0.00 0.00 87 1014.6
20260507125118 77 0.0 0.0 0.00 0.00 0.00 87 1014.8
20260507124617 77 0.0 0.0 0.00 0.00 0.00 87 1014.7
20260507124136 76 0.0 0.0 0.00 0.00 0.00 87 1014.7
20260507123634 76 0.0 0.0 0.00 0.00 0.00 87 1014.5
20260507123133 76 0.0 0.0 0.00 0.00 0.00 87 1014.5
20260507122632 75 0.0 0.0 0.00 0.00 0.00 86 1014.6
20260507122131 75 0.0 0.0 0.00 0.00 0.00 87 1014.7
20260507121629 75 0.0 0.0 0.00 0.00 0.00 88 1014.6
20260507121128 75 0.0 0.0 0.00 0.00 0.00 89 1014.4
20260507120627 74 0.0 0.0 0.00 0.00 0.00 90 1014.4
20260507120125 74 0.0 0.0 0.00 0.00 0.00 91 1014.3
20260507115644 73 0.0 0.0 0.00 0.00 0.00 93 1014.3
20260507115123 72 0.0 0.0 0.00 0.00 0.00 93 1014.3
20260507114621 71 0.0 0.0 0.00 0.00 0.00 93 1014.3
20260507114120 71 0.0 0.0 0.00 0.00 0.00 94 1014.3
20260507113619 71 0.0 0.0 0.00 0.00 0.00 94 1014.3
20260507113118 70 0.0 0.0 0.00 0.00 0.00 94 1014.4
20260507112637 69 0.0 0.0 0.00 0.00 0.00 93 1014.3
20260507112135 69 0.0 0.0 0.00 0.00 0.00 93 1014.1
20260507111634 69 0.0 0.0 0.00 0.00 0.00 93 1014.2
20260507111134 68 0.0 0.0 0.00 0.00 0.00 93 1014.3
20260507110732 68 0.0 0.0 0.00 0.00 0.00 93 1014.0
20260507110130 68 0.0 0.0 0.00 0.00 0.00 92 1014.2
20260507105630 68 0.0 0.0 0.00 0.00 0.00 92 1014.2
20260507105128 68 0.0 0.0 0.00 0.00 0.00 92 1014.1
20260507104627 68 0.0 0.0 0.00 0.00 0.00 92 1014.0
20260507104125 68 0.0 0.0 0.00 0.00 0.00 92 1014.0
20260507103624 68 0.0 0.0 0.00 0.00 0.00 92 1013.9
20260507103123 68 0.0 0.0 0.00 0.00 0.00 92 1013.9
20260507102621 68 0.0 0.0 0.00 0.00 0.00 92 1013.9
20260507102120 68 0.0 0.0 0.00 0.00 0.00 92 1013.7
20260507101619 68 0.0 0.0 0.00 0.00 0.00 92 1013.7
20260507101117 68 0.0 0.0 0.00 0.00 0.00 92 1013.7
20260507100616 68 0.0 0.0 0.00 0.00 0.00 92 1013.6
20260507100135 68 0.0 0.0 0.00 0.00 0.00 92 1013.6
20260507095634 68 0.0 0.0 0.00 0.00 0.00 92 1013.6
20260507095132 69 0.0 0.0 0.00 0.00 0.00 92 1013.6
20260507094651 69 0.0 0.0 0.00 0.00 0.00 92 1013.5
20260507094130 69 0.0 0.0 0.00 0.00 0.00 92 1013.7
20260507093629 69 0.0 0.0 0.00 0.00 0.00 92 1013.5
20260507093127 69 0.0 0.0 0.00 0.00 0.00 92 1013.5
20260507092626 69 0.0 0.0 0.00 0.00 0.00 93 1013.3
20260507092145 70 0.0 0.0 0.00 0.00 0.00 93 1013.4
20260507091624 70 0.0 0.0 0.00 0.00 0.00 93 1013.5
20260507091122 70 0.0 0.0 0.00 0.00 0.00 93 1013.5
20260507090621 70 0.0 0.0 0.00 0.00 0.00 94 1013.2
20260507090120 70 0.0 0.0 0.00 0.00 0.00 94 1013.2
20260507085619 70 0.0 0.0 0.00 0.00 0.00 94 1013.3
20260507085157 70 0.0 0.0 0.00 0.00 0.00 95 1013.1
20260507084615 71 0.0 0.0 0.00 0.00 0.00 95 1013.1
20260507084154 71 0.0 0.0 0.00 0.00 0.00 95 1012.9
20260507083633 71 0.0 0.0 0.00 0.00 0.00 95 1012.8
20260507083132 71 0.0 0.0 0.00 0.00 0.00 95 1012.8
20260507082631 71 0.0 0.0 0.00 0.00 0.00 95 1012.7
20260507082130 71 0.0 0.0 0.00 0.00 0.00 95 1012.9
20260507081628 71 0.0 0.0 0.00 0.00 0.00 96 1012.8
20260507081127 71 0.0 0.0 0.00 0.00 0.00 96 1012.8
20260507080636 71 0.0 0.0 0.00 0.00 0.00 96 1013.0
20260507080215 71 0.0 0.0 0.00 0.00 0.00 96 1013.1
20260507075633 71 0.0 0.0 0.00 0.00 0.00 96 1012.8
20260507075132 71 0.0 0.0 0.00 0.00 0.00 96 1012.8
20260507074630 71 0.0 0.0 0.00 0.00 0.00 96 1012.7
20260507074149 71 0.0 0.0 0.00 0.00 0.00 96 1012.8
20260507073627 71 0.0 0.0 0.00 0.00 0.00 96 1012.7
20260507073126 72 0.0 0.0 0.00 0.00 0.00 96 1012.7
20260507072625 72 0.0 0.0 0.00 0.00 0.00 96 1012.7
20260507072124 72 0.0 0.0 0.00 0.00 0.00 96 1012.7
20260507071622 72 0.0 0.0 0.00 0.00 0.00 96 1012.8
20260507071121 72 0.0 0.0 0.00 0.00 0.00 96 1012.7
20260507070619 72 0.0 0.0 0.00 0.00 0.00 96 1013.1
20260507070118 72 0.0 0.0 0.00 0.00 0.00 96 1013.0
20260507065637 72 0.0 0.0 0.00 0.00 0.00 95 1013.3
20260507065156 72 0.0 0.0 0.00 0.00 0.00 95 1013.1
20260507064634 73 0.0 0.0 0.00 0.00 0.00 95 1013.1
20260507064253 73 0.0 0.0 0.00 0.00 0.00 95 1013.4
20260507063631 73 0.0 0.0 0.00 0.00 0.00 95 1013.5
20260507063150 73 0.0 0.0 0.00 0.00 0.00 94 1013.8
20260507062628 72 0.0 0.0 0.00 0.00 0.00 93 1013.8
20260507062127 73 0.0 0.0 0.00 0.00 0.00 93 1013.8
20260507061625 73 0.0 0.0 0.00 0.00 0.00 93 1013.8
20260507061129 73 0.0 0.0 0.00 0.00 0.00 93 1014.0
20260507060622 73 0.0 0.0 0.00 0.00 0.00 93 1014.0
20260507060121 73 0.0 0.0 0.00 0.00 0.00 93 1014.1
20260507055619 73 0.0 0.0 0.00 0.00 0.00 93 1014.1
20260507055118 73 0.0 0.0 0.00 0.00 0.00 93 1014.3
20260507054616 73 0.0 0.0 0.00 0.00 0.00 93 1014.1
20260507054135 73 0.0 0.0 0.00 0.00 0.00 93 1014.2
20260507053654 73 0.0 0.0 0.00 0.00 0.00 93 1014.3
20260507053132 73 0.0 0.0 0.00 0.00 0.00 93 1014.4
20260507052631 73 0.0 0.0 0.00 0.00 0.00 93 1014.5
20260507052129 73 0.0 0.0 0.00 0.00 0.00 94 1014.7
20260507051628 74 0.0 0.0 0.00 0.00 0.00 94 1014.7
20260507051126 74 0.0 0.0 0.00 0.00 0.00 94 1014.7
20260507050645 74 0.0 0.0 0.00 0.00 0.00 93 1014.7
20260507050123 74 0.0 0.0 0.00 0.00 0.00 93 1014.9
20260507045622 74 0.0 0.0 0.00 0.00 0.00 93 1014.9
20260507045121 74 0.0 0.0 0.00 0.00 0.00 92 1014.8
20260507044619 74 0.0 0.0 0.00 0.00 0.00 91 1014.8
20260507044118 75 0.0 0.0 0.00 0.00 0.00 90 1014.6
20260507043616 75 0.0 0.0 0.00 0.00 0.00 90 1014.7
20260507043135 75 0.0 0.0 0.00 0.00 0.00 90 1014.8
20260507042634 75 0.0 0.0 0.00 0.00 0.00 90 1014.5
20260507042132 75 0.0 0.0 0.00 0.00 0.00 90 1014.7
20260507041651 75 0.0 0.0 0.00 0.00 0.00 90 1014.6
20260507041150 75 0.0 0.0 0.00 0.00 0.00 89 1014.6
20260507040628 75 0.0 0.0 0.00 0.00 0.00 87 1014.5
20260507040127 75 0.0 0.0 0.00 0.00 0.00 88 1014.5
20260507035625 75 0.0 0.0 0.00 0.00 0.00 88 1014.4
20260507035123 75 0.0 0.0 0.00 0.00 0.00 88 1014.4
20260507034622 75 0.0 0.0 0.00 0.00 0.00 88 1014.2
20260507034121 75 0.0 0.0 0.00 0.00 0.00 88 1014.3
20260507033619 75 0.0 0.0 0.00 0.00 0.00 87 1014.4
20260507033118 76 0.0 0.0 0.00 0.00 0.00 87 1014.6
20260507032637 76 0.0 0.0 0.00 0.00 0.00 86 1014.3
20260507032115 76 0.0 0.0 0.00 0.00 0.00 86 1014.4
20260507031634 76 0.0 0.0 0.00 0.00 0.00 86 1014.2